CST,Max TemperatureF,Mean TemperatureF,Min TemperatureF,Max Dew PointF,MeanDew PointF,Min DewpointF,Max Humidity, Mean Humidity, Min Humidity, Max Sea Level PressureIn, Mean Sea Level PressureIn, Min Sea Level PressureIn, Max VisibilityMiles, Mean VisibilityMiles, Min VisibilityMiles, Max Wind SpeedMPH, Mean Wind SpeedMPH, Max Gust SpeedMPH,PrecipitationIn, CloudCover, Events, WindDirDegrees
2013-2-1,24,12,1,16,2,-8,80,63,53,30.44,30.33,30.14,10,10,10,16,10,22,0.00,4,,243
2013-2-2,28,24,21,21,16,10,86,69,54,30.15,30.09,30.02,10,9,1,17,8,24,0.00,6,Snow,290
2013-2-3,33,28,23,23,16,12,80,63,48,30.19,30.06,29.93,10,10,7,21,7,31,0.00,3,Snow,250
2013-2-4,35,27,19,25,19,14,80,67,56,29.99,29.89,29.77,10,10,10,17,7,25,0.00,3,,321
2013-2-5,46,32,19,30,24,16,86,70,50,30.11,29.95,29.86,10,9,5,16,5,26,0.00,3,,270
2013-2-6,50,36,23,34,27,18,86,66,40,30.18,30.09,29.97,10,8,2,14,4,18,0.00,1,Rain,152
2013-2-7,42,38,33,36,32,28,87,81,61,30.11,29.96,29.87,10,4,1,17,6,24,0.55,8,Rain,354
2013-2-8,33,32,30,28,25,25,81,76,70,30.36,30.30,30.12,10,9,3,15,7,21,0.00,8,,5
2013-2-9,37,32,28,30,26,21,81,75,70,30.33,30.18,29.97,10,10,5,14,9,17,0.02,5,Rain,144
2013-2-10,59,47,35,48,35,27,87,71,38,29.95,29.62,29.39,10,7,1,32,14,44,0.56,7,Rain,176
2013-2-11,42,35,28,25,22,19,74,59,49,30.13,29.95,29.68,10,10,10,33,21,43,0.00,4,,277
2013-2-12,42,32,21,25,22,18,86,66,42,30.16,30.06,29.93,10,8,4,7,2,,0.00,0,,225
2013-2-13,51,40,28,28,25,21,74,58,38,29.93,29.81,29.74,10,10,7,15,7,17,0.00,1,,235
2013-2-14,48,42,35,30,27,23,70,58,43,30.09,29.90,29.74,10,10,10,20,10,25,0.00,4,Rain,289
2013-2-15,39,31,23,23,10,-2,65,46,19,30.28,30.24,30.10,10,10,10,16,11,21,0.00,1,,321
2013-2-16,35,25,15,16,10,7,69,55,33,30.26,30.20,30.15,10,10,10,15,6,20,0.00,1,,311
2013-2-17,44,32,21,27,17,12,69,54,31,30.16,30.03,29.81,10,10,10,18,10,22,0.00,1,,127
2013-2-18,57,42,26,43,30,16,81,63,47,29.88,29.67,29.51,10,9,1,26,13,36,0.63,4,Rain-Snow,220
2013-2-19,28,22,17,18,10,5,69,58,46,30.30,30.11,29.88,10,10,10,24,17,36,0.00,4,Snow,294
2013-2-20,24,16,8,12,6,-2,68,60,50,30.45,30.36,30.31,10,10,10,15,6,18,0.00,1,,30
2013-2-21,30,24,19,23,16,10,75,71,63,30.34,30.11,29.82,10,6,0,22,11,28,0.00,4,Snow,83
2013-2-22,33,30,26,27,21,16,80,68,59,30.01,29.88,29.74,10,8,2,18,9,22,0.00,8,Snow,249
2013-2-23,32,26,19,16,14,10,68,60,51,30.02,29.99,29.96,10,10,10,10,7,,0.08,3,,240
2013-2-24,41,28,15,23,17,9,79,61,42,30.10,30.06,29.99,10,9,4,10,3,,0.00,0,,129
2013-2-25,41,32,24,28,24,16,74,65,56,30.09,30.00,29.82,10,9,5,18,6,28,0.00,2,,62
2013-2-26,37,35,33,28,27,27,75,72,65,29.81,29.59,29.50,10,5,0,17,13,28,0.17,8,Snow,25
2013-2-27,35,34,33,27,26,25,75,73,70,29.88,29.76,29.67,10,3,1,15,9,22,0.07,8,Snow,310
2013-2-28,35,32,30,27,25,21,80,72,65,30.12,30.03,29.88,10,6,2,13,10,18,0.01,8,Snow,314